,,PA_Meas_PMT16A,,PR_Meas_QMR101_102,,RH_Meas_QMH101,,SR_Meas_QMS101,,TA_Meas_QMH101,,GenWind,,GenWind,
time,status,PA,status,PR,status,RH,status,SR,status,TA,status,DirAvg,status,SpdAvg,
2011-10-08, 00:00:04,VALID,919.46,VALID,0,VALID,89.2778,VALID,0,VALID,19.9758,VALID,359,VALID,0.264453,
2011-10-08, 00:01:04,VALID,919.443,VALID,0,VALID,89.3236,VALID,0,VALID,19.9158,VALID,359,VALID,0.233594,
2011-10-08, 00:02:04,VALID,919.414,VALID,0,VALID,89.4989,VALID,0,VALID,19.8978,VALID,359,VALID,0.183203,
2011-10-08, 00:03:04,VALID,919.416,VALID,0,VALID,89.6895,VALID,0,VALID,19.8588,VALID,359,VALID,0,
2011-10-08, 00:04:04,VALID,919.445,VALID,0,VALID,90.0097,VALID,0,VALID,19.8588,VALID,359,VALID,0,
2011-10-08, 00:05:04,VALID,919.444,VALID,0,VALID,89.9868,VALID,0,VALID,19.8393,VALID,359,VALID,0,
2011-10-08, 00:06:04,VALID,919.458,VALID,0,VALID,89.9868,VALID,0,VALID,19.8393,VALID,359,VALID,0,
2011-10-08, 00:07:04,VALID,919.468,VALID,0,VALID,90.1621,VALID,0,VALID,19.8378,VALID,359,VALID,0,
2011-10-08, 00:08:04,VALID,919.443,VALID,0,VALID,90.2384,VALID,0,VALID,19.8783,VALID,359,VALID,0.224219,
2011-10-08, 00:09:04,VALID,919.432,VALID,0,VALID,90.5738,VALID,0,VALID,19.8393,VALID,359,VALID,0.407813,
2011-10-08, 00:10:04,VALID,919.433,VALID,0,VALID,90.5967,VALID,0,VALID,19.7613,VALID,359,VALID,0.602734,
2011-10-08, 00:11:04,VALID,919.383,VALID,0,VALID,90.9626,VALID,0,VALID,19.6428,VALID,359,VALID,0.679297,
2011-10-08, 00:12:04,VALID,919.377,VALID,0,VALID,91.2904,VALID,0,VALID,19.5468,VALID,359,VALID,0.891797,
2011-10-08, 00:13:04,VALID,919.352,VALID,0,VALID,91.1989,VALID,0,VALID,19.5063,VALID,359,VALID,1.25937,
2011-10-08, 00:14:04,VALID,919.369,VALID,0,VALID,90.8559,VALID,0,VALID,19.5468,VALID,359,VALID,1.07773,
2011-10-08, 00:15:04,VALID,919.368,VALID,0,VALID,90.5586,VALID,0,VALID,19.5843,VALID,359,VALID,0.771094,
2011-10-08, 00:16:04,VALID,919.335,VALID,0,VALID,90.4061,VALID,0,VALID,19.6638,VALID,359,VALID,0.349219,
2011-10-08, 00:17:04,VALID,919.347,VALID,0,VALID,89.9106,VALID,0,VALID,19.7223,VALID,359,VALID,0.498047,
2011-10-08, 00:18:04,VALID,919.305,VALID,0,VALID,89.5294,VALID,0,VALID,19.8393,VALID,359,VALID,0.0539063,
2011-10-08, 00:19:04,VALID,919.286,VALID,0,VALID,89.4837,VALID,0,VALID,19.9158,VALID,359,VALID,0,
2011-10-08, 00:20:04,VALID,919.23,VALID,0,VALID,89.2321,VALID,0,VALID,19.9548,VALID,359,VALID,0,
2011-10-08, 00:21:04,VALID,919.197,VALID,0,VALID,89.3236,VALID,0,VALID,19.9548,VALID,359,VALID,0.0140625,
2011-10-08, 00:22:04,VALID,919.172,VALID,0,VALID,88.9805,VALID,0,VALID,19.9548,VALID,359,VALID,0,
2011-10-08, 00:23:04,VALID,919.192,VALID,0,VALID,88.7213,VALID,0,VALID,19.9548,VALID,359,VALID,0,
2011-10-08, 00:24:04,VALID,919.193,VALID,0,VALID,88.9348,VALID,0,VALID,19.9953,VALID,359,VALID,0.00195313,
2011-10-08, 00:25:04,VALID,919.164,VALID,0,VALID,88.6451,VALID,0,VALID,19.9938,VALID,359,VALID,0.348828,
2011-10-08, 00:26:04,VALID,919.183,VALID,0,VALID,88.4697,VALID,0,VALID,20.0538,VALID,359,VALID,0.182422,
2011-10-08, 00:27:04,VALID,919.185,VALID,0,VALID,88.9576,VALID,0,VALID,20.0328,VALID,359,VALID,0,
2011-10-08, 00:28:04,VALID,919.138,VALID,0,VALID,89.3846,VALID,0.107441,VALID,20.0523,VALID,359,VALID,0.245312,
2011-10-08, 00:29:04,VALID,919.135,VALID,0,VALID,89.0796,VALID,0.107441,VALID,20.0523,VALID,359,VALID,0.223047,
2011-10-08, 00:30:04,VALID,919.156,VALID,0,VALID,88.9576,VALID,0,VALID,20.0523,VALID,359,VALID,0.102734,
2011-10-08, 00:31:04,VALID,919.186,VALID,0,VALID,88.6375,VALID,0,VALID,20.0928,VALID,359,VALID,0,
2011-10-08, 00:32:04,VALID,919.167,VALID,0,VALID,88.3859,VALID,0,VALID,20.0718,VALID,359,VALID,0.0554687,
2011-10-08, 00:33:04,VALID,919.196,VALID,0,VALID,88.5765,VALID,0,VALID,20.0913,VALID,359,VALID,0.108984,
2011-10-08, 00:34:04,VALID,919.189,VALID,0,VALID,88.9729,VALID,0,VALID,20.0913,VALID,359,VALID,0,
2011-10-08, 00:35:04,VALID,919.172,VALID,0,VALID,89.5218,VALID,0,VALID,20.0913,VALID,359,VALID,0,
2011-10-08, 00:36:04,VALID,919.177,VALID,0,VALID,89.2245,VALID,0,VALID,20.1108,VALID,359,VALID,0.254687,
2011-10-08, 00:37:04,VALID,919.151,VALID,0,VALID,88.6984,VALID,0,VALID,20.0913,VALID,359,VALID,0.340234,
2011-10-08, 00:38:04,VALID,919.12,VALID,0,VALID,88.889,VALID,0,VALID,20.0718,VALID,359,VALID,0.0222656,
2011-10-08, 00:39:04,VALID,919.082,VALID,0,VALID,89.3312,VALID,0,VALID,20.0523,VALID,359,VALID,0.317578,
2011-10-08, 00:40:04,VALID,919.07,VALID,0,VALID,90.2231,VALID,0.107441,VALID,20.0343,VALID,359,VALID,0.235547,
2011-10-08, 00:41:04,VALID,919.052,VALID,0,VALID,90.5662,VALID,0,VALID,19.9743,VALID,359,VALID,0.207031,
2011-10-08, 00:42:04,VALID,919.06,VALID,0,VALID,90.9016,VALID,0,VALID,19.9158,VALID,359,VALID,0.219922,
2011-10-08, 00:43:04,VALID,919.076,VALID,0,VALID,90.6729,VALID,0,VALID,19.8768,VALID,359,VALID,0.453516,
2011-10-08, 00:44:04,VALID,919.071,VALID,0,VALID,90.7263,VALID,0,VALID,19.8963,VALID,359,VALID,0.331641,
2011-10-08, 00:45:04,VALID,919.089,VALID,0,VALID,90.5357,VALID,0.107441,VALID,19.9158,VALID,359,VALID,0.278906,
2011-10-08, 00:46:04,VALID,919.116,VALID,0,VALID,90.4747,VALID,0,VALID,19.9353,VALID,359,VALID,0.210547,
2011-10-08, 00:47:04,VALID,919.076,VALID,0,VALID,90.5204,VALID,0,VALID,19.9353,VALID,359,VALID,0,
2011-10-08, 00:48:04,VALID,919.051,VALID,0,VALID,90.8406,VALID,0,VALID,19.9548,VALID,359,VALID,0.221484,
2011-10-08, 00:49:04,VALID,919.036,VALID,0,VALID,90.7187,VALID,0.107441,VALID,19.9353,VALID,359,VALID,0.305469,
2011-10-08, 00:50:04,VALID,919.037,VALID,0,VALID,91.0846,VALID,0.107441,VALID,19.9353,VALID,359,VALID,0,
2011-10-08, 00:51:04,VALID,919.022,VALID,0,VALID,90.9245,VALID,0,VALID,19.9158,VALID,359,VALID,0.102734,
2011-10-08, 00:52:04,VALID,919.049,VALID,0,VALID,90.9397,VALID,0,VALID,19.9158,VALID,359,VALID,0,
2011-10-08, 00:53:04,VALID,919.004,VALID,0,VALID,91.0922,VALID,0,VALID,19.9353,VALID,359,VALID,0,
2011-10-08, 00:54:04,VALID,918.977,VALID,0,VALID,91.1761,VALID,0.107441,VALID,19.9563,VALID,359,VALID,0,
2011-10-08, 00:55:04,VALID,918.937,VALID,0,VALID,91.0998,VALID,0.107441,VALID,19.9158,VALID,359,VALID,0.01875,
2011-10-08, 00:56:04,VALID,918.944,VALID,0,VALID,91.3361,VALID,0,VALID,19.8558,VALID,359,VALID,0,
2011-10-08, 00:57:04,VALID,918.915,VALID,0,VALID,91.4048,VALID,0,VALID,19.8768,VALID,359,VALID,0,
2011-10-08, 00:58:04,VALID,918.906,VALID,0,VALID,91.542,VALID,0,VALID,19.8573,VALID,359,VALID,0.0191406,
2011-10-08, 00:59:04,VALID,918.906,VALID,0,VALID,92.1519,VALID,0.107441,VALID,19.8963,VALID,358,VALID,0.286719,
2011-10-08, 01:00:04,VALID,918.943,VALID,0,VALID,91.885,VALID,0.107441,VALID,19.8948,VALID,358,VALID,0.307813,
2011-10-08, 01:01:04,VALID,918.934,VALID,0,VALID,91.7554,VALID,0.107441,VALID,19.9158,VALID,359,VALID,0.00195313,
2011-10-08, 01:02:04,VALID,918.919,VALID,0,VALID,91.7859,VALID,0.107441,VALID,19.9158,VALID,358,VALID,0,
2011-10-08, 01:03:04,VALID,918.912,VALID,0,VALID,91.8469,VALID,0.107441,VALID,19.8768,VALID,358,VALID,0.284375,
2011-10-08, 01:04:04,VALID,918.904,VALID,0,VALID,92.0832,VALID,0,VALID,19.8588,VALID,358,VALID,0,
2011-10-08, 01:05:04,VALID,918.88,VALID,0,VALID,92.1519,VALID,0,VALID,19.8588,VALID,358,VALID,0.205859,
2011-10-08, 01:06:04,VALID,918.866,VALID,0,VALID,92.2357,VALID,0,VALID,19.8183,VALID,359,VALID,0.207031,
2011-10-08, 01:07:04,VALID,918.864,VALID,0,VALID,92.1976,VALID,0,VALID,19.8198,VALID,358,VALID,0.352734,
2011-10-08, 01:08:04,VALID,918.87,VALID,0,VALID,92.2433,VALID,0,VALID,19.7808,VALID,358,VALID,0.410937,
2011-10-08, 01:09:04,VALID,918.867,VALID,0,VALID,92.4568,VALID,0,VALID,19.7418,VALID,358,VALID,0.164453,
2011-10-08, 01:10:04,VALID,918.821,VALID,0,VALID,92.6245,VALID,0,VALID,19.7223,VALID,358,VALID,0,
2011-10-08, 01:11:04,VALID,918.826,VALID,0,VALID,92.9218,VALID,0,VALID,19.7223,VALID,358,VALID,0.226563,
2011-10-08, 01:12:04,VALID,918.78,VALID,0,VALID,93.0514,VALID,0,VALID,19.7028,VALID,358,VALID,0.319531,
2011-10-08, 01:13:04,VALID,918.75,VALID,0,VALID,93.2877,VALID,0,VALID,19.7028,VALID,358,VALID,0,
2011-10-08, 01:14:04,VALID,918.748,VALID,0,VALID,93.4402,VALID,0,VALID,19.7238,VALID,358,VALID,0.250391,
2011-10-08, 01:15:04,VALID,918.719,VALID,0,VALID,93.646,VALID,0,VALID,19.7028,VALID,358,VALID,0.173438,
2011-10-08, 01:16:04,VALID,918.666,VALID,0,VALID,93.8061,VALID,0,VALID,19.7223,VALID,358,VALID,0,
2011-10-08, 01:17:04,VALID,918.665,VALID,0,VALID,93.7756,VALID,0,VALID,19.7418,VALID,358,VALID,0,
2011-10-08, 01:18:04,VALID,918.667,VALID,0,VALID,93.6689,VALID,0,VALID,19.7403,VALID,358,VALID,0,
2011-10-08, 01:19:04,VALID,918.646,VALID,0,VALID,93.6384,VALID,0,VALID,19.7808,VALID,358,VALID,0.314844,
2011-10-08, 01:20:04,VALID,918.678,VALID,0,VALID,93.7604,VALID,0.107441,VALID,19.7778,VALID,358,VALID,0.387109,
2011-10-08, 01:21:04,VALID,918.671,VALID,0,VALID,93.9052,VALID,0,VALID,19.8378,VALID,358,VALID,0.362891,
2011-10-08, 01:22:04,VALID,918.68,VALID,0,VALID,94.0272,VALID,0,VALID,19.8573,VALID,358,VALID,0.329297,
2011-10-08, 01:23:04,VALID,918.675,VALID,0,VALID,93.9815,VALID,0,VALID,19.8783,VALID,358,VALID,0.152734,
2011-10-08, 01:24:04,VALID,918.673,VALID,0,VALID,94.012,VALID,0,VALID,19.9173,VALID,358,VALID,0.122656,
2011-10-08, 01:25:04,VALID,918.658,VALID,0,VALID,94.0196,VALID,0,VALID,19.9158,VALID,358,VALID,0,
2011-10-08, 01:26:04,VALID,918.685,VALID,0,VALID,93.7528,VALID,0,VALID,19.9158,VALID,358,VALID,0.0285156,
2011-10-08, 01:27:04,VALID,918.632,VALID,0,VALID,93.6537,VALID,0,VALID,19.9158,VALID,358,VALID,0.442187,
2011-10-08, 01:28:04,VALID,918.613,VALID,0,VALID,93.7528,VALID,0,VALID,19.9368,VALID,358,VALID,0.434375,
2011-10-08, 01:29:04,VALID,918.622,VALID,0,VALID,93.829,VALID,0,VALID,19.9353,VALID,358,VALID,0.146875,
2011-10-08, 01:30:04,VALID,918.593,VALID,0,VALID,93.6689,VALID,0,VALID,19.9548,VALID,358,VALID,0,
2011-10-08, 01:31:04,VALID,918.581,VALID,0,VALID,93.5546,VALID,0,VALID,19.9548,VALID,358,VALID,0.350391,
2011-10-08, 01:32:04,VALID,918.538,VALID,0,VALID,93.3792,VALID,0,VALID,19.9158,VALID,358,VALID,0.546094,
2011-10-08, 01:33:04,VALID,918.518,VALID,0,VALID,93.6613,VALID,0,VALID,19.8978,VALID,358,VALID,0.577734,
2011-10-08, 01:34:04,VALID,918.529,VALID,0,VALID,93.9967,VALID,0,VALID,19.8768,VALID,358,VALID,0.807813,
2011-10-08, 01:35:04,VALID,918.502,VALID,0,VALID,94.2178,VALID,0,VALID,19.8378,VALID,358,VALID,0.872266,
2011-10-08, 01:36:04,VALID,918.463,VALID,0,VALID,94.3321,VALID,0,VALID,19.8588,VALID,358,VALID,0.789844,
2011-10-08, 01:37:04,VALID,918.475,VALID,0,VALID,94.3855,VALID,0,VALID,19.8393,VALID,358,VALID,0.708594,
2011-10-08, 01:38:04,VALID,918.406,VALID,0,VALID,94.3703,VALID,0,VALID,19.7988,VALID,358,VALID,0.724219,
2011-10-08, 01:39:04,VALID,918.409,VALID,0,VALID,94.3093,VALID,0,VALID,19.8003,VALID,358,VALID,0.668359,
2011-10-08, 01:40:04,VALID,918.39,VALID,0,VALID,94.2712,VALID,0,VALID,19.7403,VALID,358,VALID,0.690234,
2011-10-08, 01:41:04,VALID,918.364,VALID,0,VALID,94.355,VALID,0,VALID,19.7208,VALID,358,VALID,0.479688,
2011-10-08, 01:42:04,VALID,918.416,VALID,0,VALID,94.4694,VALID,0,VALID,19.7013,VALID,358,VALID,0.525391,
2011-10-08, 01:43:04,VALID,918.403,VALID,0,VALID,94.5609,VALID,0,VALID,19.7028,VALID,358,VALID,0.296484,
2011-10-08, 01:44:04,VALID,918.353,VALID,0,VALID,94.7438,VALID,0,VALID,19.7013,VALID,358,VALID,0.252344,
2011-10-08, 01:45:04,VALID,918.376,VALID,0,VALID,94.8658,VALID,0,VALID,19.7208,VALID,358,VALID,0.273047,
2011-10-08, 01:46:04,VALID,918.335,VALID,0,VALID,94.9344,VALID,0,VALID,19.7418,VALID,358,VALID,0,
2011-10-08, 01:47:04,VALID,918.321,VALID,0,VALID,94.8887,VALID,0,VALID,19.7208,VALID,358,VALID,0.426562,
2011-10-08, 01:48:04,VALID,918.347,VALID,0,VALID,94.942,VALID,0,VALID,19.7403,VALID,358,VALID,0.307031,
2011-10-08, 01:49:04,VALID,918.313,VALID,0,VALID,94.7591,VALID,0,VALID,19.7208,VALID,358,VALID,0.333594,
2011-10-08, 01:50:04,VALID,918.289,VALID,0,VALID,94.7133,VALID,0,VALID,19.7418,VALID,358,VALID,0.501953,
2011-10-08, 01:51:04,VALID,918.277,VALID,0,VALID,94.6295,VALID,0,VALID,19.7013,VALID,358,VALID,0.495703,
2011-10-08, 01:52:04,VALID,918.263,VALID,0,VALID,94.6142,VALID,0,VALID,19.6818,VALID,358,VALID,0.518359,
2011-10-08, 01:53:04,VALID,918.233,VALID,0,VALID,94.7591,VALID,0,VALID,19.6818,VALID,358,VALID,0.750781,
2011-10-08, 01:54:04,VALID,918.253,VALID,0,VALID,94.7209,VALID,0,VALID,19.6623,VALID,358,VALID,0.692187,
2011-10-08, 01:55:04,VALID,918.261,VALID,0,VALID,94.7209,VALID,0,VALID,19.6428,VALID,358,VALID,0.725391,
2011-10-08, 01:56:04,VALID,918.228,VALID,0,VALID,94.8353,VALID,0,VALID,19.6443,VALID,358,VALID,0.852344,
2011-10-08, 01:57:04,VALID,918.223,VALID,0,VALID,94.9344,VALID,0,VALID,19.6248,VALID,358,VALID,0.954687,
2011-10-08, 01:58:04,VALID,918.201,VALID,0,VALID,95.0488,VALID,0,VALID,19.6248,VALID,358,VALID,1.11992,
2011-10-08, 01:59:04,VALID,918.175,VALID,0,VALID,95.1631,VALID,0,VALID,19.6233,VALID,358,VALID,0.710156,
2011-10-08, 02:00:04,VALID,918.185,VALID,0,VALID,95.186,VALID,0,VALID,19.6443,VALID,358,VALID,0.673437,
2011-10-08, 02:01:04,VALID,918.17,VALID,0,VALID,95.2088,VALID,0,VALID,19.6233,VALID,358,VALID,0.689844,
2011-10-08, 02:02:04,VALID,918.13,VALID,0,VALID,95.2775,VALID,0,VALID,19.6443,VALID,358,VALID,0.637109,
2011-10-08, 02:03:04,VALID,918.092,VALID,0,VALID,95.3079,VALID,0,VALID,19.6638,VALID,359,VALID,1.19648,
2011-10-08, 02:04:04,VALID,918.109,VALID,0,VALID,95.3384,VALID,0,VALID,19.6623,VALID,359,VALID,0.785156,
2011-10-08, 02:05:04,VALID,918.104,VALID,0,VALID,95.3689,VALID,0,VALID,19.7013,VALID,359,VALID,0.528906,
2011-10-08, 02:06:04,VALID,918.081,VALID,0,VALID,95.4299,VALID,0,VALID,19.7208,VALID,358,VALID,0.414844,
2011-10-08, 02:07:04,VALID,918.07,VALID,0,VALID,95.3766,VALID,0.107441,VALID,19.7598,VALID,358,VALID,0.528906,
2011-10-08, 02:08:04,VALID,918.07,VALID,0,VALID,95.3079,VALID,0,VALID,19.7793,VALID,358,VALID,0.362891,
2011-10-08, 02:09:04,VALID,918.055,VALID,0,VALID,95.2088,VALID,0,VALID,19.7988,VALID,358,VALID,0.488672,
2011-10-08, 02:10:04,VALID,918.033,VALID,0,VALID,95.1479,VALID,0,VALID,19.8183,VALID,358,VALID,0.473828,
2011-10-08, 02:11:04,VALID,918.03,VALID,0,VALID,95.1707,VALID,0,VALID,19.8378,VALID,358,VALID,0.521484,
2011-10-08, 02:12:04,VALID,918.031,VALID,0,VALID,94.9954,VALID,0,VALID,19.8588,VALID,358,VALID,0.355078,
2011-10-08, 02:13:04,VALID,918.066,VALID,0,VALID,95.0564,VALID,0,VALID,19.8573,VALID,358,VALID,0,
2011-10-08, 02:14:04,VALID,917.991,VALID,0,VALID,95.0792,VALID,0,VALID,19.8573,VALID,358,VALID,0,
2011-10-08, 02:15:04,VALID,918.003,VALID,0,VALID,95.064,VALID,0,VALID,19.8768,VALID,359,VALID,0.189063,
2011-10-08, 02:16:04,VALID,917.967,VALID,0,VALID,95.1402,VALID,0,VALID,19.8978,VALID,358,VALID,0.0785156,
2011-10-08, 02:17:04,VALID,917.948,VALID,0,VALID,95.0488,VALID,0,VALID,19.8768,VALID,358,VALID,0.282031,
2011-10-08, 02:18:04,VALID,917.957,VALID,0,VALID,95.0792,VALID,0.107441,VALID,19.8768,VALID,358,VALID,0.344531,
2011-10-08, 02:19:04,VALID,917.996,VALID,0,VALID,95.125,VALID,0,VALID,19.8768,VALID,358,VALID,0.225391,
2011-10-08, 02:20:04,VALID,917.934,VALID,0,VALID,95.0564,VALID,0,VALID,19.8573,VALID,358,VALID,0.620703,
2011-10-08, 02:21:04,VALID,917.909,VALID,0,VALID,94.9496,VALID,0,VALID,19.8183,VALID,358,VALID,0.858594,
2011-10-08, 02:22:04,VALID,917.906,VALID,0,VALID,95.2622,VALID,0,VALID,19.8768,VALID,358,VALID,0.225391,
2011-10-08, 02:23:04,VALID,917.849,VALID,0,VALID,95.1555,VALID,0,VALID,19.8573,VALID,358,VALID,0.0683594,
2011-10-08, 02:24:04,VALID,917.84,VALID,0,VALID,94.9344,VALID,0.107441,VALID,19.8183,VALID,358,VALID,1.06016,
2011-10-08, 02:25:04,VALID,917.837,VALID,0,VALID,95.0716,VALID,0,VALID,19.8393,VALID,19,VALID,1.03203,
2011-10-08, 02:26:04,VALID,917.857,VALID,0,VALID,95.1402,VALID,0,VALID,19.8393,VALID,19,VALID,1.03906,
2011-10-08, 02:27:04,VALID,917.872,VALID,0,VALID,95.3461,VALID,0,VALID,19.8588,VALID,19,VALID,0.642187,
2011-10-08, 02:28:04,VALID,917.889,VALID,0,VALID,95.3842,VALID,0,VALID,19.8588,VALID,19,VALID,0.672656,
2011-10-08, 02:29:04,VALID,917.85,VALID,0,VALID,95.3232,VALID,0,VALID,19.8378,VALID,19,VALID,0.355859,
2011-10-08, 02:30:04,VALID,917.832,VALID,0,VALID,95.3994,VALID,0,VALID,19.8183,VALID,19,VALID,0.435547,
2011-10-08, 02:31:04,VALID,917.853,VALID,0,VALID,95.3842,VALID,0,VALID,19.8393,VALID,19,VALID,0,
2011-10-08, 02:32:04,VALID,917.846,VALID,0,VALID,95.1555,VALID,0,VALID,19.7988,VALID,19,VALID,0.333984,
2011-10-08, 02:33:04,VALID,917.789,VALID,0,VALID,95.2088,VALID,0,VALID,19.7793,VALID,19,VALID,1.0543,
2011-10-08, 02:34:04,VALID,917.778,VALID,0,VALID,95.3537,VALID,0,VALID,19.8003,VALID,19,VALID,0.970703,
2011-10-08, 02:35:04,VALID,917.771,VALID,0,VALID,95.247,VALID,0,VALID,19.7808,VALID,19,VALID,0.935156,
2011-10-08, 02:36:04,VALID,917.772,VALID,0,VALID,95.3384,VALID,0,VALID,19.8018,VALID,19,VALID,1.11328,
2011-10-08, 02:37:04,VALID,917.764,VALID,0,VALID,95.2927,VALID,0,VALID,19.7823,VALID,19,VALID,0.798047,
2011-10-08, 02:38:04,VALID,917.79,VALID,0,VALID,95.3766,VALID,0,VALID,19.7823,VALID,19,VALID,1.02266,
2011-10-08, 02:39:04,VALID,917.801,VALID,0,VALID,95.3613,VALID,0,VALID,19.7613,VALID,19,VALID,1.30586,
2011-10-08, 02:40:04,VALID,917.805,VALID,0,VALID,95.3461,VALID,0,VALID,19.7418,VALID,19,VALID,1.28203,
2011-10-08, 02:41:04,VALID,917.799,VALID,0,VALID,95.3766,VALID,0,VALID,19.7223,VALID,19,VALID,1.04531,
2011-10-08, 02:42:04,VALID,917.801,VALID,0,VALID,95.3918,VALID,0,VALID,19.7028,VALID,18,VALID,1.05195,
2011-10-08, 02:43:04,VALID,917.803,VALID,0,VALID,95.468,VALID,0,VALID,19.7433,VALID,18,VALID,0.705469,
2011-10-08, 02:44:04,VALID,917.79,VALID,0,VALID,95.4833,VALID,0,VALID,19.7433,VALID,18,VALID,0.833594,
2011-10-08, 02:45:04,VALID,917.77,VALID,0,VALID,95.5748,VALID,0,VALID,19.7418,VALID,18,VALID,0.561719,
2011-10-08, 02:46:04,VALID,917.786,VALID,0,VALID,95.5824,VALID,0,VALID,19.7823,VALID,18,VALID,0.492969,
2011-10-08, 02:47:04,VALID,917.735,VALID,0,VALID,95.5824,VALID,0,VALID,19.7613,VALID,18,VALID,0.721875,
2011-10-08, 02:48:04,VALID,917.751,VALID,0,VALID,95.5748,VALID,0,VALID,19.7823,VALID,18,VALID,0.702344,
2011-10-08, 02:49:04,VALID,917.725,VALID,0,VALID,95.59,VALID,0,VALID,19.8198,VALID,18,VALID,0.974219,
2011-10-08, 02:50:04,VALID,917.715,VALID,0,VALID,95.6129,VALID,0,VALID,19.8393,VALID,18,VALID,0.866406,
2011-10-08, 02:51:04,VALID,917.725,VALID,0,VALID,95.5443,VALID,0,VALID,19.8393,VALID,18,VALID,0.926953,
2011-10-08, 02:52:04,VALID,917.718,VALID,0,VALID,95.4909,VALID,0,VALID,19.8393,VALID,18,VALID,0.935156,
2011-10-08, 02:53:04,VALID,917.718,VALID,0,VALID,95.4757,VALID,0,VALID,19.8183,VALID,18,VALID,0.648047,
2011-10-08, 02:54:04,VALID,917.712,VALID,0,VALID,95.4071,VALID,0,VALID,19.8378,VALID,18,VALID,1.15469,
2011-10-08, 02:55:04,VALID,917.712,VALID,0,VALID,95.3537,VALID,0,VALID,19.8588,VALID,18,VALID,0.630859,
2011-10-08, 02:56:04,VALID,917.651,VALID,0,VALID,95.3079,VALID,0,VALID,19.8588,VALID,18,VALID,0.580859,
2011-10-08, 02:57:04,VALID,917.659,VALID,0,VALID,95.2698,VALID,0,VALID,19.8588,VALID,18,VALID,0.701563,
2011-10-08, 02:58:04,VALID,917.647,VALID,0,VALID,95.1631,VALID,0,VALID,19.8378,VALID,18,VALID,0.878906,
2011-10-08, 02:59:04,VALID,917.675,VALID,0,VALID,95.0869,VALID,0,VALID,19.8393,VALID,18,VALID,0.869531,
2011-10-08, 03:00:04,VALID,917.646,VALID,0,VALID,95.0945,VALID,0,VALID,19.8378,VALID,18,VALID,0.852734,
2011-10-08, 03:01:04,VALID,917.587,VALID,0,VALID,95.064,VALID,0,VALID,19.8198,VALID,335,VALID,1.33594,
2011-10-08, 03:02:04,VALID,917.603,VALID,0,VALID,95.1555,VALID,0,VALID,19.8393,VALID,341,VALID,0.553906,
2011-10-08, 03:03:04,VALID,917.568,VALID,0,VALID,95.064,VALID,0,VALID,19.8183,VALID,325,VALID,1.07187,
2011-10-08, 03:04:04,VALID,917.599,VALID,0,VALID,95.0183,VALID,0,VALID,19.8393,VALID,338,VALID,1.25898,
2011-10-08, 03:05:04,VALID,917.576,VALID,0,VALID,95.0106,VALID,0,VALID,19.7988,VALID,355,VALID,1.29805,
2011-10-08, 03:06:04,VALID,917.626,VALID,0,VALID,95.0792,VALID,0,VALID,19.7988,VALID,14,VALID,0.7,
2011-10-08, 03:07:04,VALID,917.615,VALID,0,VALID,95.1097,VALID,0,VALID,19.7988,VALID,8,VALID,0.495703,
2011-10-08, 03:08:04,VALID,917.584,VALID,0,VALID,95.0716,VALID,0,VALID,19.8003,VALID,284,VALID,0.786328,
2011-10-08, 03:09:04,VALID,917.605,VALID,0,VALID,95.1555,VALID,0,VALID,19.8003,VALID,284,VALID,0.159766,
2011-10-08, 03:10:04,VALID,917.56,VALID,0,VALID,95.2698,VALID,0,VALID,19.7793,VALID,284,VALID,0.147266,
2011-10-08, 03:11:04,VALID,917.528,VALID,0,VALID,95.3461,VALID,0,VALID,19.8003,VALID,284,VALID,0.466406,
2011-10-08, 03:12:04,VALID,917.554,VALID,0,VALID,95.3537,VALID,0,VALID,19.7808,VALID,285,VALID,0.38125,
2011-10-08, 03:13:04,VALID,917.53,VALID,0,VALID,95.4299,VALID,0,VALID,19.7988,VALID,284,VALID,0.298438,
2011-10-08, 03:14:04,VALID,917.516,VALID,0,VALID,95.4757,VALID,0,VALID,19.7793,VALID,285,VALID,0.149219,
2011-10-08, 03:15:04,VALID,917.542,VALID,0,VALID,95.4909,VALID,0,VALID,19.7988,VALID,285,VALID,0.49375,
2011-10-08, 03:16:04,VALID,917.545,VALID,0,VALID,95.4147,VALID,0,VALID,19.8183,VALID,284,VALID,0.621875,
2011-10-08, 03:17:04,VALID,917.556,VALID,0,VALID,95.4071,VALID,0,VALID,19.8378,VALID,284,VALID,0.651953,
2011-10-08, 03:18:04,VALID,917.554,VALID,0,VALID,95.4375,VALID,0,VALID,19.8573,VALID,28,VALID,0.846094,
2011-10-08, 03:19:04,VALID,917.541,VALID,0,VALID,95.3918,VALID,0,VALID,19.8573,VALID,34,VALID,0.789453,
2011-10-08, 03:20:04,VALID,917.543,VALID,0,VALID,95.2622,VALID,0,VALID,19.8768,VALID,34,VALID,0.391797,
2011-10-08, 03:21:04,VALID,917.54,VALID,0,VALID,95.1783,VALID,0,VALID,19.8768,VALID,34,VALID,0.581641,
2011-10-08, 03:22:04,VALID,917.546,VALID,0,VALID,95.1097,VALID,0.107441,VALID,19.8558,VALID,34,VALID,0.290625,
2011-10-08, 03:23:04,VALID,917.535,VALID,0,VALID,95.1097,VALID,0.107441,VALID,19.8768,VALID,34,VALID,0.389062,
2011-10-08, 03:24:04,VALID,917.516,VALID,0,VALID,95.1097,VALID,0,VALID,19.8768,VALID,34,VALID,0.316797,
2011-10-08, 03:25:04,VALID,917.478,VALID,0,VALID,94.9801,VALID,0,VALID,19.8768,VALID,34,VALID,0.948047,
2011-10-08, 03:26:04,VALID,917.453,VALID,0,VALID,95.0259,VALID,0.107441,VALID,19.8768,VALID,34,VALID,0.764453,
2011-10-08, 03:27:04,VALID,917.468,VALID,0,VALID,95.1097,VALID,0,VALID,19.8783,VALID,34,VALID,0.567187,
2011-10-08, 03:28:04,VALID,917.458,VALID,0,VALID,95.1174,VALID,0,VALID,19.9173,VALID,34,VALID,0.743359,
2011-10-08, 03:29:04,VALID,917.421,VALID,0,VALID,95.0945,VALID,0,VALID,19.8963,VALID,34,VALID,0.192578,
2011-10-08, 03:30:04,VALID,917.39,VALID,0,VALID,94.9725,VALID,0,VALID,19.9158,VALID,34,VALID,0.368359,
2011-10-08, 03:31:04,VALID,917.4,VALID,0,VALID,94.9344,VALID,0,VALID,19.9158,VALID,34,VALID,0.616016,
2011-10-08, 03:32:04,VALID,917.408,VALID,0,VALID,94.7972,VALID,0,VALID,19.8963,VALID,34,VALID,0.700781,
2011-10-08, 03:33:04,VALID,917.402,VALID,0,VALID,94.66,VALID,0,VALID,19.8768,VALID,34,VALID,1.08477,
2011-10-08, 03:34:04,VALID,917.413,VALID,0,VALID,94.6295,VALID,0,VALID,19.8393,VALID,34,VALID,0.866016,
2011-10-08, 03:35:04,VALID,917.408,VALID,0,VALID,94.7133,VALID,0,VALID,19.7808,VALID,34,VALID,0.478906,
2011-10-08, 03:36:04,VALID,917.4,VALID,0,VALID,94.8277,VALID,0,VALID,19.7613,VALID,34,VALID,0.111719,
2011-10-08, 03:37:04,VALID,917.408,VALID,0,VALID,94.8963,VALID,0,VALID,19.7418,VALID,34,VALID,0.167187,
2011-10-08, 03:38:04,VALID,917.413,VALID,0,VALID,94.9878,VALID,0,VALID,19.7418,VALID,34,VALID,0,
2011-10-08, 03:39:04,VALID,917.399,VALID,0,VALID,95.0106,VALID,0,VALID,19.7418,VALID,34,VALID,0,
2011-10-08, 03:40:04,VALID,917.412,VALID,0,VALID,95.0259,VALID,0,VALID,19.7418,VALID,34,VALID,0.279297,
2011-10-08, 03:41:04,VALID,917.402,VALID,0,VALID,95.003,VALID,0,VALID,19.7223,VALID,34,VALID,0.326172,
2011-10-08, 03:42:04,VALID,917.358,VALID,0,VALID,95.0106,VALID,0,VALID,19.7028,VALID,34,VALID,0.324609,
2011-10-08, 03:43:04,VALID,917.344,VALID,0,VALID,95.064,VALID,0,VALID,19.6833,VALID,34,VALID,0.133203,
2011-10-08, 03:44:04,VALID,917.38,VALID,0,VALID,95.186,VALID,0,VALID,19.6638,VALID,34,VALID,0.222266,
2011-10-08, 03:45:04,VALID,917.35,VALID,0,VALID,95.2088,VALID,0,VALID,19.6233,VALID,34,VALID,0.291016,